Regional Weather Roundup
Issued by NWS

Home | Current Version | Previous Version | Text Only | Print | Product List | Glossary Off
Versions: 1 2 3 4 5 6 7 8 9 10 11 12 13 14 15 16 17 18 19 20 21 22 23 24 25 26 27 28 29 30 31 32 33 34 35 36 37 38 39 40 41 42 43 44 45 46 47 48 49 50

352
ASUS43 KLMK 250710
RWRKY
KENTUCKY REGIONAL WEATHER ROUNDUP
NATIONAL WEATHER SERVICE LOUISVILLE KY
300 AM EDT SAT MAR 25 2017

NOTE "FAIR" INDICATES FEW OR NO CLOUDS BELOW 12,000 FEET
WITH NO SIGNIFICANT WEATHER AND/OR OBSTRUCTIONS TO VISIBILITY.

KYZ001>023-026-027-061>063-070>075-250800-
WESTERN AND SOUTH CENTRAL KENTUCKY

CITY           SKY/WX    TMP DP  RH WIND       PRES   REMARKS
PADUCAH        CLOUDY    67  54  63 S15       29.95F
HENDERSON      CLOUDY    63  52  67 SE9       30.00F
OWENSBORO      CLOUDY    63  53  70 SE9       30.04F
HOPKINSVILLE   CLOUDY    66  54  63 S9        30.03F
BOWLING GREEN  CLOUDY    63  50  62 SE9       30.09F
GLASGOW        PTCLDY    62  48  60 S6        30.11F
$$

KYZ024-025-028>034-038-045-046-053-250800-
NORTH CENTRAL KENTUCKY

CITY           SKY/WX    TMP DP  RH WIND       PRES   REMARKS
LOUISVILLE/SDF MOCLDY    63  49  60 SE9       30.10F
LOUISVILLE/LOU PTCLDY    64  50  60 SE5       30.10F
FORT KNOX      CLOUDY    62  51  67 SE8       30.09F
$$

KYZ035>037-039>044-047>052-055>060-089>105-250800-
NORTHEAST KENTUCKY

CITY           SKY/WX    TMP DP  RH WIND       PRES   REMARKS
LEXINGTON      CLOUDY    59  48  67 SE7       30.15F
COVINGTON      CLOUDY    60  52  74 S8        30.12F
FRANKFORT      PTCLDY    60  48  64 SE5       30.13S
$$

KYZ054-064>069-076>088-106>120-250800-
SOUTHEAST KENTUCKY

CITY           SKY/WX    TMP DP  RH WIND       PRES   REMARKS
JACKSON        CLOUDY    61  47  59 CALM      30.19F
LONDON         PTCLDY    61  45  55 S7        30.18S
SOMERSET       CLOUDY    59  45  58 S6        30.18S
MIDDLESBORO    CLOUDY    53  48  82 CALM      30.21F
MONTICELLO     MOSUNNY   63  48  58 SE7       30.18S
$$





USA.gov is the U.S. government's official web portal to all federal, state and local government web resources and services.